SCP
0 0 0 0 0 0 -0 0 0 0 -0 -0 -0 -0 -0 -0 0 0 0 0 0 0 0 0 0 0 0 0 0 0 0 0 0 -0 -0 -0 0 0 0 0 0 0 0 0 0 0 0 -0 0 0 0 0 0 0
0 0 0 0 0 -0 -0 0 0 -0 -0 -0 -0 -0 -0 -0 0 0 0 0 0 0 0 0 0 0 0 0 0 0 0 0 0 -0 -0 -0 0 0 0 0 0 0 0 0 0 0 0 0 0 0 0 0 0 0
0 0 0 0 0 0 0 0 0 -0 -0 -0 -0 -0 0 0 0 0 0 0 0 0 0 0 0 0 0 0 0 0 0 0 0 0 -0 0 0 0 0 0 0 0 0 0 0 0 0 0 0 0 0 0 0 0
0 0 0 0 0 0 0 0 -0 -0 -0 -0 -0 -0 -0 -0 0 0 0 0 0 0 0 0 0 0 0 0 0 0 0 0 0 0 -0 -0 0 0 0 0 0 0 0 0 0 0 0 0 0 0 0 0 0 -0
0 0 0 0 0 0 0 0 -0 -0 -0 -0 -0 -0 -0 0 0 0 0 0 0 0 0 0 0 0 0 0 0 0 0 0 0 0 0 0 0 0 0 0 0 0 0 0 0 0 0 0 0 -0 -0 0 0 0
0 0 0 0 0 0 0 0 -0 -0 -0 -0 -0 0 0 0 0 0 0 0 0 0 0 0 0 0 0 0 0 0 0 0 0 0 0 -0 0 0 0 0 0 0 0 0 0 0 0 -0 -0 -0 0 -0 -0 -0
0 0 0 0 0 0 0 0 0 0 0 0 0 0 0 0 0 0 0 0 0 0 0 0 0 0 0 0 0 0 0 0 0 0 0 0 0 0 0 0 -0 -0 0 -0 0 0 -0 0 0 0 0 0 -0 -0
0 0 0 0 0 0 0 0 0 0 0 -0 -0 0 0 0 0 0 0 0 0 0 0 0 0 0 0 0 0 0 0 0 0 0 0 0 0 0 -0 0 0 -0 -0 -0 -0 -0 0 -0 0 0 -0 -0 0 0
0 0 0 0 0 0 0 0 0 0 0 -0 -0 0 0 0 0 0 0 0 0 0 0 0 0 0 0 0 0 0 0 0 0 0 0 0 0 0 0 0 0 0 0 0 0 0 0 0 0 0 0 0 0 0
0 0 0 0 0 0 0 0 0 0 -0 0 0 0 0 0 0 0 0 0 0 0 0 0 0 0 0 0 0 0 0 0 0 0 0 0 0 -0 0 0 -0 -0 -0 -0 0 0 0 0 0 0 0 0 0 0
0 0 0 0 0 0 0 0 0 0 0 0 0 0 0 0 0 0 0 0 0 0 0 0 0 0 0 0 0 0 0 0 0 0 -0 0 0 -0 0 0 0 0 0 0 0 0 0 0 0 0 0 0 0 0
0 0 0 0 0 0 0 -0 -0 0 0 0 0 0 0 0 0 0 0 0 0 0 0 0 0 0 0 0 0 0 0 0 0 0 0 0 -0 0 -0 -0 0 0 0 0 0 0 0 0 0 0 0 0 0 0
0 0 0 0 0 -0 0 0 0 0 0 0 0 0 0 0 0 0 0 0 0 0 0 0 0 0 0 0 0 0 0 0 0 0 -0 -0 0 0 0 0 0 0 0 0 0 0 0 0 0 0 0 0 0 0
0 0 0 0 -0 0 0 0 0 0 0 0 0 0 0 0 0 0 0 0 0 0 0 0 0 0 0 0 0 0 0 0 -0 -0 -0 0 -0 0 0 0 0 0 0 0 0 0 0 0 0 0 0 0 0 0
0 0 0 0 0 0 0 0 0 0 0 0 0 0 0 0 0 0 0 0 0 0 0 0 0 0 0 0 0 0 0 0 0 0 0 0 0 0 0 0 0 0 0 0 0 0 0 0 0 0 0 0 0 0
0 0 0 0 0 0 0 0 0 0 0 0 0 0 0 0 0 0 0 0 0 0 0 0 0 0 0 0 0 0 0 0 0 0 0 0 0 0 0 0 0 0 0 0 0 0 0 0 0 0 0 0 0 0
0 0 0 0 0 0 0 0 0 0 0 0 0 0 0 0 0 0 0 0 0 0 0 0 0 0 0 0 0 -0 -0 -0 -0 -0 0 0 0 0 0 0 0 0 0 0 0 0 0 0 0 0 0 0 0 0
0 0 0 0 0 0 0 0 0 0 0 0 0 0 0 0 0 0 0 0 0 0 0 0 0 0 0 0 0 -0 0 0 0 0 0 0 0 0 0 0 0 0 0 0 0 0 0 0 0 0 0 0 0 0
0 0 0 0 0 0 0 0 0 0 0 0 0 0 0 0 0 0 0 0 0 0 0 0 0 0 0 0 0 0 0 0 0 -0 0 0 0 0 0 0 0 0 0 0 0 0 0 0 0 0 0 0 0 0
0 0 0 0 0 0 0 0 0 0 0 0 0 0 0 0 0 0 0 0 0 0 0 0 0 0 0 0 0 0 0 0 -0 0 0 0 0 0 0 0 0 0 0 0 0 0 0 0 0 0 0 0 0 0
0 0 0 0 0 0 0 0 0 0 0 0 0 0 0 0 0 0 0 0 0 0 0 0 0 0 0 0 0 0 0 0 0 0 0 0 0 0 0 0 0 0 0 0 0 0 0 0 0 0 0 0 0 0
0 0 0 0 0 0 0 0 0 0 0 0 0 0 0 0 0 0 0 0 0 0 0 0 0 0 0 0 0 0 0 0 0 0 0 0 0 0 0 0 0 0 0 0 0 0 0 0 0 0 0 0 0 0
0 0 0 0 0 0 0 0 0 0 0 0 0 0 0 0 0 0 0 0 0 0 0 0 0 0 0 0 0 0 0 0 0 0 0 0 0 0 0 0 0 0 0 0 0 0 0 0 0 0 0 0 0 0
0 0 0 0 0 0 0 0 0 0 0 0 0 0 0 0 0 0 0 0 0 0 0 0 0 0 0 0 0 0 0 0 0 0 0 0 0 0 0 0 0 0 0 0 0 0 0 0 0 0 0 0 0 0
0 0 0 0 0 0 0 0 0 0 0 0 0 0 0 0 0 0 0 0 0 0 0 0 0 0 0 0 0 0 0 0 0 0 0 0 0 0 0 0 0 0 0 0 0 0 0 0 0 0 0 0 0 0
0 0 0 0 0 0 0 0 0 0 0 0 0 0 0 0 0 0 0 0 0 0 0 0 0 0 0 0 0 0 0 0 0 0 0 0 0 0 0 0 0 0 0 0 0 0 0 0 0 0 0 0 0 0
0 0 0 0 0 0 0 0 0 0 0 0 0 0 0 0 0 0 0 0 0 0 0 0 0 0 0 0 0 0 0 0 0 0 0 0 0 0 0 0 0 0 0 0 0 0 0 0 0 0 0 0 0 0
0 0 0 0 0 0 0 0 0 0 0 0 0 0 0 0 0 0 0 0 0 0 0 0 0 0 0 0 0 0 0 0 0 0 0 0 0 0 0 0 0 0 0 0 0 0 0 0 0 0 0 0 0 0
0 0 0 0 0 0 0 0 0 0 0 0 0 0 0 0 0 0 0 0 0 0 0 0 0 0 0 0 0 0 0 0 0 0 0 0 0 0 0 0 0 0 0 0 0 0 0 0 0 0 0 0 0 0
0 0 0 0 0 0 0 0 0 0 0 0 0 0 0 0 0 0 0 0 0 0 0 0 0 0 0 0 0 0 0 0 0 0 0 0 0 0 0 0 0 0 0 0 0 0 0 0 0 0 0 0 0 0
0 0 0 0 0 0 0 0 0 0 0 0 0 0 0 0 0 0 0 0 0 0 0 0 0 0 0 0 0 0 0 0 0 0 0 0 0 0 0 0 0 0 0 0 0 0 0 0 0 0 0 0 0 0
0 0 0 0 0 0 0 0 0 0 0 0 0 0 0 0 0 0 0 0 0 0 0 0 0 0 0 0 0 0 0 0 0 0 0 0 0 0 0 0 0 0 0 0 0 0 0 0 0 0 0 0 0 0
0 0 0 0 0 0 0 0 0 0 0 0 0 0 0 0 0 0 0 0 0 0 0 0 0 0 0 0 0 0 0 0 0 0 0 0 0 0 0 0 0 0 0 0 0 0 0 0 0 0 0 0 0 0
Wind_Speed_500mb
96 94 91 96 86 87 82 69 75 75 67 59 53 45 36 27 21 14 10 13 11 6 9 12 8 5 2 2 3 11 7 8 8 9 7 5 5 6 7 6 14 9 14 11 12 11 14 75 29 18 15 32 33 45
96 93 91 97 86 88 86 77 75 73 69 62 55 46 38 29 23 16 14 14 14 10 8 11 10 9 3 4 2 8 2 5 8 3 2 2 4 5 5 9 6 8 8 8 12 7 19 40 25 39 35 30 44 46
89 90 86 94 97 86 87 74 79 76 69 62 56 48 39 32 24 17 14 12 13 7 8 11 9 5 5 7 3 3 2 5 5 5 2 1 2 3 6 4 8 3 12 4 4 10 19 43 43 47 43 41 42 46
102 96 92 87 89 88 90 83 85 80 69 62 57 49 40 32 22 19 16 12 14 3 3 7 13 5 6 8 7 7 5 7 8 3 2 1 2 3 3 6 5 5 14 8 6 12 13 36 41 32 34 39 47 51
90 92 91 92 84 83 92 90 87 80 71 62 59 49 41 30 19 18 14 13 16 8 2 4 5 11 8 9 8 4 6 7 7 3 2 1 3 5 4 4 5 5 5 5 5 8 4 14 25 26 33 39 41 48
96 93 94 91 88 94 92 94 89 81 70 66 58 50 37 27 20 18 8 15 17 14 2 1 1 2 4 9 8 3 4 7 5 4 3 3 2 4 4 4 3 1 3 0 4 3 3 9 24 25 33 37 42 46
96 99 94 92 93 98 99 97 91 79 72 68 59 45 38 25 25 12 6 11 13 13 4 1 2 2 10 10 7 2 1 4 5 6 2 3 2 6 3 5 7 1 0 4 6 6 5 3 9 23 30 35 37 39
96 95 106 98 95 106 107 102 93 82 77 66 57 48 35 24 24 14 11 8 13 8 5 4 0 4 9 6 5 6 5 2 4 5 6 3 3 1 6 13 8 5 11 9 7 11 18 19 20 23 25 26 29 35
108 110 90 103 120 115 111 103 95 90 81 73 57 39 25 19 13 14 16 14 16 7 4 6 5 4 11 6 6 5 6 5 4 3 1 5 2 8 8 14 12 8 12 12 19 21 20 21 25 25 23 25 29 33
92 110 98 101 107 123 117 108 102 94 83 67 54 21 15 19 17 19 11 8 9 8 9 7 10 5 11 10 4 4 3 3 5 2 1 4 6 14 9 15 14 12 16 21 29 24 23 24 24 24 23 25 27 28
104 104 114 126 125 125 123 116 105 93 81 65 25 13 24 34 17 8 5 3 3 3 10 7 15 7 12 6 7 5 4 1 1 4 4 3 6 10 26 19 11 11 20 29 19 24 21 22 25 22 24 25 25 26
97 107 119 113 128 129 127 117 109 108 80 42 27 37 31 11 6 6 1 2 5 7 13 13 11 8 10 8 6 4 3 2 4 7 3 5 5 23 32 25 20 23 25 25 27 26 28 25 22 18 21 22 21 21
102 124 137 140 138 128 122 112 113 95 67 53 15 16 13 7 5 13 13 7 5 20 24 18 10 11 9 7 11 3 3 5 2 1 6 6 7 33 31 32 29 31 33 34 36 33 30 25 24 20 21 23 22 21
121 136 137 136 126 133 123 123 114 93 73 17 18 8 9 6 10 9 7 6 11 13 41 33 15 7 7 6 5 6 2 1 2 3 9 4 31 37 33 36 34 38 38 36 34 31 26 22 23 22 21 22 18 18
129 132 126 129 131 127 122 119 99 85 29 13 13 10 10 7 6 14 14 16 17 43 41 21 11 6 2 7 3 6 3 6 9 8 4 11 35 32 37 41 38 41 42 38 34 31 29 27 25 26 26 25 21 20
141 145 140 142 136 126 129 108 89 56 13 9 8 10 10 8 7 15 21 17 39 50 21 9 8 5 1 6 6 11 9 9 6 7 11 26 33 35 43 41 41 43 41 37 33 30 27 25 21 19 21 21 20 18
152 86 148 142 129 129 113 100 54 11 11 9 5 12 15 8 11 18 26 27 50 32 6 9 7 9 9 4 3 8 9 6 8 10 20 26 32 44 48 46 48 45 40 35 32 30 26 24 22 20 19 22 21 20
87 136 149 142 133 121 91 43 14 11 7 7 10 15 18 12 18 23 23 44 33 16 15 7 17 6 9 10 7 8 22 14 13 22 26 33 43 49 46 48 46 40 36 34 31 28 26 25 25 24 22 23 22 20
139 155 150 130 129 78 21 9 7 11 6 11 17 23 14 13 16 26 28 54 22 15 9 11 4 7 7 16 15 18 25 28 31 34 36 42 47 49 51 48 42 40 36 33 31 28 27 25 22 22 22 22 21 20
140 143 131 118 84 31 14 10 12 11 11 14 18 18 14 10 20 24 33 45 23 11 7 6 11 13 12 13 18 14 18 31 37 47 46 49 51 51 47 43 41 40 39 36 33 28 26 26 25 23 21 19 18 15
133 123 121 83 42 17 14 12 11 11 21 12 25 15 11 18 14 17 28 37 19 11 15 26 26 20 19 17 17 16 20 33 40 37 52 62 60 55 50 46 43 40 37 35 33 32 29 26 24 22 22 20 18 14
104 112 99 58 16 12 15 12 18 22 10 18 19 12 11 8 10 14 22 22 16 21 24 24 29 36 28 24 22 21 23 33 42 39 39 51 63 63 60 54 52 47 41 35 32 30 31 29 29 28 27 24 20 14
102 78 36 12 11 10 11 12 7 8 6 15 14 7 5 7 10 17 11 19 23 36 48 52 41 34 37 35 33 30 30 36 44 43 38 46 54 54 52 50 46 43 43 40 36 33 31 31 30 29 27 23 17 14
69 15 10 9 10 8 13 6 7 10 12 6 5 7 5 7 12 6 8 14 29 38 50 57 55 49 46 44 42 37 37 40 43 45 40 42 53 55 50 45 44 39 33 32 35 35 34 33 33 31 26 21 17 14
17 7 7 10 10 12 8 6 3 4 6 6 6 4 6 11 3 6 8 14 37 51 53 56 59 58 53 49 45 44 43 43 45 46 45 43 47 54 54 51 46 43 41 39 38 37 35 35 35 32 27 22 17 15
11 4 6 10 8 9 12 10 13 11 7 7 5 10 8 6 1 13 8 9 17 26 39 53 58 59 53 46 42 42 42 43 44 41 39 41 46 49 52 53 51 48 44 39 36 36 37 37 35 31 25 18 16 13
10 6 7 11 15 18 9 9 13 7 9 12 10 10 7 6 12 10 10 13 13 12 17 31 40 43 41 35 34 37 38 40 43 37 33 38 40 39 36 32 32 33 35 37 36 36 35 34 31 25 19 15 13 12
9 15 13 22 10 7 9 6 9 15 9 18 30 10 16 16 8 5 7 9 9 9 13 26 36 40 34 33 33 36 41 44 44 41 38 38 41 42 42 39 37 34 33 36 38 38 35 31 27 21 16 15 15 12
7 25 23 6 7 6 10 9 15 12 17 28 9 7 10 9 7 9 12 9 9 12 16 22 29 33 35 35 36 36 36 40 44 46 46 47 48 47 44 40 37 35 37 40 39 37 35 31 23 18 18 16 11 9
11 19 7 7 9 10 8 12 13 21 26 22 11 8 9 10 13 16 16 13 13 14 18 24 24 28 30 36 38 41 40 38 36 34 34 36 38 36 40 40 38 38 40 41 41 40 35 28 22 21 18 13 9 7
29 11 8 5 5 7 12 16 13 14 12 14 23 20 15 10 15 21 20 20 22 23 26 30 32 33 33 34 34 36 38 39 39 37 36 30 34 32 34 37 38 40 42 41 38 34 30 24 23 20 15 10 6 7
15 11 13 6 4 13 17 12 9 8 6 8 8 12 9 9 9 13 19 26 33 33 32 33 32 29 32 34 33 34 29 33 34 35 33 31 31 32 35 39 43 43 43 41 38 32 26 25 23 18 13 8 6 7
8 8 9 11 9 9 13 12 10 2 5 5 6 8 13 10 11 12 12 19 29 30 27 28 32 34 36 36 37 36 33 30 38 33 30 29 29 33 40 43 45 46 44 41 36 30 30 28 23 17 11 6 5 8
Wind_Direction_500mb
213 215 213 220 215 220 213 212 200 194 202 201 201 202 208 216 228 241 241 216 213 236 262 245 233 241 238 120 342 326 313 16 1 42 6 3 325 359 313 289 328 334 343 356 340 10 1 355 353 47 313 321 5 29
215 217 217 213 214 219 213 210 191 192 199 198 198 200 207 217 228 242 233 218 219 234 262 248 248 276 198 198 354 354 21 354 356 5 61 298 326 318 348 342 348 20 19 339 21 17 339 358 2 22 44 51 41 47
221 218 206 216 218 217 211 204 185 194 197 195 196 199 206 216 228 243 226 218 210 241 270 246 218 197 161 169 196 333 26 350 352 334 321 69 304 280 350 332 294 107 10 0 228 3 1 23 43 51 55 56 64 70
212 223 212 215 220 208 205 195 187 193 191 192 195 198 205 217 225 235 221 227 212 191 211 221 198 175 176 197 195 233 266 315 329 352 293 18 262 257 290 312 294 335 329 337 74 4 25 28 23 30 53 68 70 75
214 217 214 216 219 212 201 192 185 190 186 191 194 196 206 213 218 209 212 229 219 214 240 219 226 246 225 178 186 232 274 299 314 288 240 270 284 311 285 294 258 359 346 19 76 340 6 2 9 38 60 66 77 84
210 210 217 214 217 210 196 182 183 184 184 190 190 196 203 207 202 192 198 231 210 206 221 219 209 51 132 128 139 152 284 292 280 281 299 303 301 317 308 272 245 61 349 188 74 356 55 30 34 59 73 78 85 86
209 214 212 214 209 200 187 180 180 179 185 185 188 192 200 202 194 203 180 159 174 189 207 125 158 98 120 120 118 110 264 275 277 289 291 316 258 343 265 252 175 190 248 209 198 158 87 110 75 80 84 85 85 85
213 210 213 212 208 192 183 177 177 178 179 180 184 189 193 193 192 203 205 185 175 188 193 128 302 151 157 153 141 138 138 210 313 302 298 342 279 70 254 236 195 171 167 138 151 143 130 123 121 114 104 103 99 88
206 208 207 207 192 181 177 175 174 174 178 181 180 178 174 182 196 208 196 188 197 210 202 172 190 193 156 154 150 132 155 174 242 236 26 331 350 231 226 174 180 168 174 158 132 132 129 129 125 123 119 104 93 88
212 202 196 201 195 180 173 171 173 178 176 170 167 158 176 172 159 147 152 182 187 204 217 204 162 146 165 169 153 145 101 141 191 158 201 210 258 251 189 156 161 173 177 163 151 141 146 140 135 124 111 97 90 89
205 203 198 190 181 174 170 173 175 171 168 161 163 157 148 147 145 164 146 147 216 255 208 173 189 147 188 157 162 175 138 28 272 134 250 223 263 192 175 171 165 163 164 163 160 154 155 143 133 122 109 102 98 94
200 197 193 188 181 174 172 173 172 170 166 158 151 129 138 155 130 112 197 297 219 222 178 156 168 157 153 149 126 147 115 138 252 326 274 258 236 168 162 163 158 154 156 161 153 151 144 142 131 124 113 106 102 98
196 189 184 180 173 173 175 172 174 166 147 139 138 148 151 146 95 181 194 236 251 178 174 156 153 171 143 154 90 132 150 215 136 130 246 241 173 168 168 166 161 157 152 153 152 153 150 146 134 128 126 114 104 101
189 181 180 177 176 174 174 173 171 162 146 158 160 148 195 181 241 191 179 174 160 158 154 144 128 187 145 111 135 123 130 249 28 325 237 207 181 174 174 169 167 162 157 156 152 147 147 146 143 138 128 116 112 113
186 182 179 175 174 174 173 171 167 159 167 157 159 199 199 179 150 169 147 140 141 146 145 124 107 181 93 103 34 111 80 244 209 230 233 189 172 177 175 172 169 168 162 160 158 155 154 151 149 145 136 127 123 113
178 175 173 173 172 172 170 160 157 163 144 146 157 119 136 146 176 173 168 166 153 152 143 121 116 83 265 129 135 208 136 231 240 213 199 178 181 178 171 168 164 162 160 162 159 158 154 147 146 141 132 126 124 123
164 153 167 170 169 167 159 153 144 137 186 167 135 163 161 116 160 168 169 166 158 153 153 134 138 206 120 79 236 197 209 208 221 208 174 177 179 173 170 169 166 168 168 168 166 161 159 154 152 148 147 145 141 134
153 159 166 166 159 152 145 143 128 139 134 142 156 168 169 145 148 160 165 163 160 181 167 190 136 159 200 178 236 222 213 206 183 169 170 167 166 168 171 172 172 173 173 172 170 169 167 166 164 161 162 153 146 144
157 163 167 165 159 143 131 135 130 115 106 130 142 152 150 151 159 165 165 170 166 170 169 163 121 211 223 216 207 187 197 189 174 171 170 167 168 172 173 176 178 176 178 178 175 174 171 165 166 169 166 160 158 153
161 159 160 151 148 129 102 105 127 106 132 153 153 150 137 144 153 164 168 174 172 182 198 209 218 216 199 202 197 214 204 191 175 166 172 175 176 178 181 183 182 181 181 180 180 179 177 174 174 173 170 166 164 162
141 148 151 147 124 89 98 122 94 95 127 135 146 141 114 132 135 159 174 177 194 221 234 231 232 217 199 207 206 204 199 201 192 194 190 184 184 182 184 186 190 190 192 189 188 183 180 178 180 176 173 173 170 172
141 154 145 141 85 79 80 79 115 117 115 130 140 133 130 141 149 159 171 196 228 230 218 231 232 223 213 215 218 213 208 198 197 199 195 200 189 189 191 193 193 193 193 196 192 191 189 187 186 183 180 180 182 188
142 140 130 83 93 68 101 102 97 108 116 164 141 123 146 147 161 167 228 229 237 227 229 233 232 226 221 222 223 221 219 204 203 201 196 200 203 205 201 199 199 200 196 194 192 195 198 193 185 184 181 181 189 202
133 101 102 95 85 115 134 98 107 113 118 149 149 132 158 154 163 209 252 243 229 229 226 227 227 220 217 219 221 218 213 205 202 202 199 202 200 201 201 204 201 198 200 205 202 201 199 192 186 183 184 190 201 221
97 58 106 61 112 115 99 112 99 80 124 187 144 147 155 154 150 241 237 252 229 228 225 222 219 218 222 223 219 214 209 207 207 205 200 199 201 199 196 197 199 201 202 203 205 204 200 192 189 190 193 198 210 225
85 63 94 151 154 136 170 134 177 167 137 147 150 125 138 121 114 247 230 249 256 242 231 226 219 214 215 218 218 217 212 206 200 204 204 204 204 210 208 205 204 205 205 204 204 205 202 196 195 194 193 200 218 225
112 197 131 122 137 137 104 99 132 129 167 172 165 160 142 181 236 248 258 261 259 266 235 215 210 214 221 218 211 206 205 202 202 206 206 202 202 200 207 219 218 216 213 207 203 201 203 200 193 193 196 209 216 221
105 150 146 153 135 158 129 124 156 193 182 157 143 175 182 198 239 253 273 289 243 258 228 201 198 198 199 198 198 202 198 196 198 199 197 197 200 199 201 200 199 202 204 200 199 194 192 191 192 189 202 213 213 222
114 136 132 95 124 147 184 177 199 184 163 171 171 202 223 230 251 280 299 287 255 229 203 188 188 189 191 191 190 190 197 201 198 194 197 199 197 199 199 200 201 199 194 196 191 188 189 190 185 187 202 203 215 250
143 156 115 130 148 195 187 184 186 183 186 187 202 236 248 253 276 292 282 269 248 223 201 185 188 194 200 200 195 190 190 193 196 204 213 212 207 204 202 201 199 194 190 189 189 188 187 182 185 198 195 204 223 262
146 149 106 89 142 172 162 164 160 186 204 224 235 248 251 278 285 286 263 247 237 224 213 203 198 196 197 201 202 201 195 196 194 197 198 195 197 199 200 199 193 187 185 184 184 185 182 185 191 188 193 209 244 280
164 167 153 138 182 153 152 172 179 199 217 227 243 233 249 238 245 246 240 230 226 220 213 210 206 201 198 195 200 203 202 208 206 202 202 199 194 191 190 189 184 181 181 181 183 179 179 185 184 187 193 214 257 297
116 126 92 106 132 182 175 174 192 182 242 246 246 233 221 222 241 248 254 232 220 205 206 203 199 199 197 200 202 204 203 202 199 200 197 193 188 187 184 181 180 179 180 182 179 178 182 181 181 184 195 223 280 305
Wind_Speed_850mb
96 94 91 96 86 87 82 69 75 75 67 59 53 45 36 27 21 14 10 13 11 6 9 12 8 5 2 2 3 11 7 8 8 9 7 5 5 6 7 6 14 9 14 11 12 11 14 75 29 18 15 32 33 45
96 93 91 97 86 88 86 77 75 73 69 62 55 46 38 29 23 16 14 14 14 10 8 11 10 9 3 4 2 8 2 5 8 3 2 2 4 5 5 9 6 8 8 8 12 7 19 40 25 39 35 30 44 46
89 90 86 94 97 86 87 74 79 76 69 62 56 48 39 32 24 17 14 12 13 7 8 11 9 5 5 7 3 3 2 5 5 5 2 1 2 3 6 4 8 3 12 4 4 10 19 43 43 47 43 41 42 46
102 96 92 87 89 88 90 83 85 80 69 62 57 49 40 32 22 19 16 12 14 3 3 7 13 5 6 8 7 7 5 7 8 3 2 1 2 3 3 6 5 5 14 8 6 12 13 36 41 32 34 39 47 51
90 92 91 92 84 83 92 90 87 80 71 62 59 49 41 30 19 18 14 13 16 8 2 4 5 11 8 9 8 4 6 7 7 3 2 1 3 5 4 4 5 5 5 5 5 8 4 14 25 26 33 39 41 48
96 93 94 91 88 94 92 94 89 81 70 66 58 50 37 27 20 18 8 15 17 14 2 1 1 2 4 9 8 3 4 7 5 4 3 3 2 4 4 4 3 1 3 0 4 3 3 9 24 25 33 37 42 46
96 99 94 92 93 98 99 97 91 79 72 68 59 45 38 25 25 12 6 11 13 13 4 1 2 2 10 10 7 2 1 4 5 6 2 3 2 6 3 5 7 1 0 4 6 6 5 3 9 23 30 35 37 39
96 95 106 98 95 106 107 102 93 82 77 66 57 48 35 24 24 14 11 8 13 8 5 4 0 4 9 6 5 6 5 2 4 5 6 3 3 1 6 13 8 5 11 9 7 11 18 19 20 23 25 26 29 35
108 110 90 103 120 115 111 103 95 90 81 73 57 39 25 19 13 14 16 14 16 7 4 6 5 4 11 6 6 5 6 5 4 3 1 5 2 8 8 14 12 8 12 12 19 21 20 21 25 25 23 25 29 33
92 110 98 101 107 123 117 108 102 94 83 67 54 21 15 19 17 19 11 8 9 8 9 7 10 5 11 10 4 4 3 3 5 2 1 4 6 14 9 15 14 12 16 21 29 24 23 24 24 24 23 25 27 28
104 104 114 126 125 125 123 116 105 93 81 65 25 13 24 34 17 8 5 3 3 3 10 7 15 7 12 6 7 5 4 1 1 4 4 3 6 10 26 19 11 11 20 29 19 24 21 22 25 22 24 25 25 26
97 107 119 113 128 129 127 117 109 108 80 42 27 37 31 11 6 6 1 2 5 7 13 13 11 8 10 8 6 4 3 2 4 7 3 5 5 23 32 25 20 23 25 25 27 26 28 25 22 18 21 22 21 21
102 124 137 140 138 128 122 112 113 95 67 53 15 16 13 7 5 13 13 7 5 20 24 18 10 11 9 7 11 3 3 5 2 1 6 6 7 33 31 32 29 31 33 34 36 33 30 25 24 20 21 23 22 21
121 136 137 136 126 133 123 123 114 93 73 17 18 8 9 6 10 9 7 6 11 13 41 33 15 7 7 6 5 6 2 1 2 3 9 4 31 37 33 36 34 38 38 36 34 31 26 22 23 22 21 22 18 18
129 132 126 129 131 127 122 119 99 85 29 13 13 10 10 7 6 14 14 16 17 43 41 21 11 6 2 7 3 6 3 6 9 8 4 11 35 32 37 41 38 41 42 38 34 31 29 27 25 26 26 25 21 20
141 145 140 142 136 126 129 108 89 56 13 9 8 10 10 8 7 15 21 17 39 50 21 9 8 5 1 6 6 11 9 9 6 7 11 26 33 35 43 41 41 43 41 37 33 30 27 25 21 19 21 21 20 18
152 86 148 142 129 129 113 100 54 11 11 9 5 12 15 8 11 18 26 27 50 32 6 9 7 9 9 4 3 8 9 6 8 10 20 26 32 44 48 46 48 45 40 35 32 30 26 24 22 20 19 22 21 20
87 136 149 142 133 121 91 43 14 11 7 7 10 15 18 12 18 23 23 44 33 16 15 7 17 6 9 10 7 8 22 14 13 22 26 33 43 49 46 48 46 40 36 34 31 28 26 25 25 24 22 23 22 20
139 155 150 130 129 78 21 9 7 11 6 11 17 23 14 13 16 26 28 54 22 15 9 11 4 7 7 16 15 18 25 28 31 34 36 42 47 49 51 48 42 40 36 33 31 28 27 25 22 22 22 22 21 20
140 143 131 118 84 31 14 10 12 11 11 14 18 18 14 10 20 24 33 45 23 11 7 6 11 13 12 13 18 14 18 31 37 47 46 49 51 51 47 43 41 40 39 36 33 28 26 26 25 23 21 19 18 15
133 123 121 83 42 17 14 12 11 11 21 12 25 15 11 18 14 17 28 37 19 11 15 26 26 20 19 17 17 16 20 33 40 37 52 62 60 55 50 46 43 40 37 35 33 32 29 26 24 22 22 20 18 14
104 112 99 58 16 12 15 12 18 22 10 18 19 12 11 8 10 14 22 22 16 21 24 24 29 36 28 24 22 21 23 33 42 39 39 51 63 63 60 54 52 47 41 35 32 30 31 29 29 28 27 24 20 14
102 78 36 12 11 10 11 12 7 8 6 15 14 7 5 7 10 17 11 19 23 36 48 52 41 34 37 35 33 30 30 36 44 43 38 46 54 54 52 50 46 43 43 40 36 33 31 31 30 29 27 23 17 14
69 15 10 9 10 8 13 6 7 10 12 6 5 7 5 7 12 6 8 14 29 38 50 57 55 49 46 44 42 37 37 40 43 45 40 42 53 55 50 45 44 39 33 32 35 35 34 33 33 31 26 21 17 14
17 7 7 10 10 12 8 6 3 4 6 6 6 4 6 11 3 6 8 14 37 51 53 56 59 58 53 49 45 44 43 43 45 46 45 43 47 54 54 51 46 43 41 39 38 37 35 35 35 32 27 22 17 15
11 4 6 10 8 9 12 10 13 11 7 7 5 10 8 6 1 13 8 9 17 26 39 53 58 59 53 46 42 42 42 43 44 41 39 41 46 49 52 53 51 48 44 39 36 36 37 37 35 31 25 18 16 13
10 6 7 11 15 18 9 9 13 7 9 12 10 10 7 6 12 10 10 13 13 12 17 31 40 43 41 35 34 37 38 40 43 37 33 38 40 39 36 32 32 33 35 37 36 36 35 34 31 25 19 15 13 12
9 15 13 22 10 7 9 6 9 15 9 18 30 10 16 16 8 5 7 9 9 9 13 26 36 40 34 33 33 36 41 44 44 41 38 38 41 42 42 39 37 34 33 36 38 38 35 31 27 21 16 15 15 12
7 25 23 6 7 6 10 9 15 12 17 28 9 7 10 9 7 9 12 9 9 12 16 22 29 33 35 35 36 36 36 40 44 46 46 47 48 47 44 40 37 35 37 40 39 37 35 31 23 18 18 16 11 9
11 19 7 7 9 10 8 12 13 21 26 22 11 8 9 10 13 16 16 13 13 14 18 24 24 28 30 36 38 41 40 38 36 34 34 36 38 36 40 40 38 38 40 41 41 40 35 28 22 21 18 13 9 7
29 11 8 5 5 7 12 16 13 14 12 14 23 20 15 10 15 21 20 20 22 23 26 30 32 33 33 34 34 36 38 39 39 37 36 30 34 32 34 37 38 40 42 41 38 34 30 24 23 20 15 10 6 7
15 11 13 6 4 13 17 12 9 8 6 8 8 12 9 9 9 13 19 26 33 33 32 33 32 29 32 34 33 34 29 33 34 35 33 31 31 32 35 39 43 43 43 41 38 32 26 25 23 18 13 8 6 7
8 8 9 11 9 9 13 12 10 2 5 5 6 8 13 10 11 12 12 19 29 30 27 28 32 34 36 36 37 36 33 30 38 33 30 29 29 33 40 43 45 46 44 41 36 30 30 28 23 17 11 6 5 8
Wind_Direction_850mb
213 215 213 220 215 220 213 212 200 194 202 201 201 202 208 216 228 241 241 216 213 236 262 245 233 241 238 120 342 326 313 16 1 42 6 3 325 359 313 289 328 334 343 356 340 10 1 355 353 47 313 321 5 29
215 217 217 213 214 219 213 210 191 192 199 198 198 200 207 217 228 242 233 218 219 234 262 248 248 276 198 198 354 354 21 354 356 5 61 298 326 318 348 342 348 20 19 339 21 17 339 358 2 22 44 51 41 47
221 218 206 216 218 217 211 204 185 194 197 195 196 199 206 216 228 243 226 218 210 241 270 246 218 197 161 169 196 333 26 350 352 334 321 69 304 280 350 332 294 107 10 0 228 3 1 23 43 51 55 56 64 70
212 223 212 215 220 208 205 195 187 193 191 192 195 198 205 217 225 235 221 227 212 191 211 221 198 175 176 197 195 233 266 315 329 352 293 18 262 257 290 312 294 335 329 337 74 4 25 28 23 30 53 68 70 75
214 217 214 216 219 212 201 192 185 190 186 191 194 196 206 213 218 209 212 229 219 214 240 219 226 246 225 178 186 232 274 299 314 288 240 270 284 311 285 294 258 359 346 19 76 340 6 2 9 38 60 66 77 84
210 210 217 214 217 210 196 182 183 184 184 190 190 196 203 207 202 192 198 231 210 206 221 219 209 51 132 128 139 152 284 292 280 281 299 303 301 317 308 272 245 61 349 188 74 356 55 30 34 59 73 78 85 86
209 214 212 214 209 200 187 180 180 179 185 185 188 192 200 202 194 203 180 159 174 189 207 125 158 98 120 120 118 110 264 275 277 289 291 316 258 343 265 252 175 190 248 209 198 158 87 110 75 80 84 85 85 85
213 210 213 212 208 192 183 177 177 178 179 180 184 189 193 193 192 203 205 185 175 188 193 128 302 151 157 153 141 138 138 210 313 302 298 342 279 70 254 236 195 171 167 138 151 143 130 123 121 114 104 103 99 88
206 208 207 207 192 181 177 175 174 174 178 181 180 178 174 182 196 208 196 188 197 210 202 172 190 193 156 154 150 132 155 174 242 236 26 331 350 231 226 174 180 168 174 158 132 132 129 129 125 123 119 104 93 88
212 202 196 201 195 180 173 171 173 178 176 170 167 158 176 172 159 147 152 182 187 204 217 204 162 146 165 169 153 145 101 141 191 158 201 210 258 251 189 156 161 173 177 163 151 141 146 140 135 124 111 97 90 89
205 203 198 190 181 174 170 173 175 171 168 161 163 157 148 147 145 164 146 147 216 255 208 173 189 147 188 157 162 175 138 28 272 134 250 223 263 192 175 171 165 163 164 163 160 154 155 143 133 122 109 102 98 94
200 197 193 188 181 174 172 173 172 170 166 158 151 129 138 155 130 112 197 297 219 222 178 156 168 157 153 149 126 147 115 138 252 326 274 258 236 168 162 163 158 154 156 161 153 151 144 142 131 124 113 106 102 98
196 189 184 180 173 173 175 172 174 166 147 139 138 148 151 146 95 181 194 236 251 178 174 156 153 171 143 154 90 132 150 215 136 130 246 241 173 168 168 166 161 157 152 153 152 153 150 146 134 128 126 114 104 101
189 181 180 177 176 174 174 173 171 162 146 158 160 148 195 181 241 191 179 174 160 158 154 144 128 187 145 111 135 123 130 249 28 325 237 207 181 174 174 169 167 162 157 156 152 147 147 146 143 138 128 116 112 113
186 182 179 175 174 174 173 171 167 159 167 157 159 199 199 179 150 169 147 140 141 146 145 124 107 181 93 103 34 111 80 244 209 230 233 189 172 177 175 172 169 168 162 160 158 155 154 151 149 145 136 127 123 113
178 175 173 173 172 172 170 160 157 163 144 146 157 119 136 146 176 173 168 166 153 152 143 121 116 83 265 129 135 208 136 231 240 213 199 178 181 178 171 168 164 162 160 162 159 158 154 147 146 141 132 126 124 123
164 153 167 170 169 167 159 153 144 137 186 167 135 163 161 116 160 168 169 166 158 153 153 134 138 206 120 79 236 197 209 208 221 208 174 177 179 173 170 169 166 168 168 168 166 161 159 154 152 148 147 145 141 134
153 159 166 166 159 152 145 143 128 139 134 142 156 168 169 145 148 160 165 163 160 181 167 190 136 159 200 178 236 222 213 206 183 169 170 167 166 168 171 172 172 173 173 172 170 169 167 166 164 161 162 153 146 144
157 163 167 165 159 143 131 135 130 115 106 130 142 152 150 151 159 165 165 170 166 170 169 163 121 211 223 216 207 187 197 189 174 171 170 167 168 172 173 176 178 176 178 178 175 174 171 165 166 169 166 160 158 153
161 159 160 151 148 129 102 105 127 106 132 153 153 150 137 144 153 164 168 174 172 182 198 209 218 216 199 202 197 214 204 191 175 166 172 175 176 178 181 183 182 181 181 180 180 179 177 174 174 173 170 166 164 162
141 148 151 147 124 89 98 122 94 95 127 135 146 141 114 132 135 159 174 177 194 221 234 231 232 217 199 207 206 204 199 201 192 194 190 184 184 182 184 186 190 190 192 189 188 183 180 178 180 176 173 173 170 172
141 154 145 141 85 79 80 79 115 117 115 130 140 133 130 141 149 159 171 196 228 230 218 231 232 223 213 215 218 213 208 198 197 199 195 200 189 189 191 193 193 193 193 196 192 191 189 187 186 183 180 180 182 188
142 140 130 83 93 68 101 102 97 108 116 164 141 123 146 147 161 167 228 229 237 227 229 233 232 226 221 222 223 221 219 204 203 201 196 200 203 205 201 199 199 200 196 194 192 195 198 193 185 184 181 181 189 202
133 101 102 95 85 115 134 98 107 113 118 149 149 132 158 154 163 209 252 243 229 229 226 227 227 220 217 219 221 218 213 205 202 202 199 202 200 201 201 204 201 198 200 205 202 201 199 192 186 183 184 190 201 221
97 58 106 61 112 115 99 112 99 80 124 187 144 147 155 154 150 241 237 252 229 228 225 222 219 218 222 223 219 214 209 207 207 205 200 199 201 199 196 197 199 201 202 203 205 204 200 192 189 190 193 198 210 225
85 63 94 151 154 136 170 134 177 167 137 147 150 125 138 121 114 247 230 249 256 242 231 226 219 214 215 218 218 217 212 206 200 204 204 204 204 210 208 205 204 205 205 204 204 205 202 196 195 194 193 200 218 225
112 197 131 122 137 137 104 99 132 129 167 172 165 160 142 181 236 248 258 261 259 266 235 215 210 214 221 218 211 206 205 202 202 206 206 202 202 200 207 219 218 216 213 207 203 201 203 200 193 193 196 209 216 221
105 150 146 153 135 158 129 124 156 193 182 157 143 175 182 198 239 253 273 289 243 258 228 201 198 198 199 198 198 202 198 196 198 199 197 197 200 199 201 200 199 202 204 200 199 194 192 191 192 189 202 213 213 222
114 136 132 95 124 147 184 177 199 184 163 171 171 202 223 230 251 280 299 287 255 229 203 188 188 189 191 191 190 190 197 201 198 194 197 199 197 199 199 200 201 199 194 196 191 188 189 190 185 187 202 203 215 250
143 156 115 130 148 195 187 184 186 183 186 187 202 236 248 253 276 292 282 269 248 223 201 185 188 194 200 200 195 190 190 193 196 204 213 212 207 204 202 201 199 194 190 189 189 188 187 182 185 198 195 204 223 262
146 149 106 89 142 172 162 164 160 186 204 224 235 248 251 278 285 286 263 247 237 224 213 203 198 196 197 201 202 201 195 196 194 197 198 195 197 199 200 199 193 187 185 184 184 185 182 185 191 188 193 209 244 280
164 167 153 138 182 153 152 172 179 199 217 227 243 233 249 238 245 246 240 230 226 220 213 210 206 201 198 195 200 203 202 208 206 202 202 199 194 191 190 189 184 181 181 181 183 179 179 185 184 187 193 214 257 297
116 126 92 106 132 182 175 174 192 182 242 246 246 233 221 222 241 248 254 232 220 205 206 203 199 199 197 200 202 204 203 202 199 200 197 193 188 187 184 181 180 179 180 182 179 178 182 181 181 184 195 223 280 305